TEVEL2-1

Last updated on Mon Sep 21 2026 00:03:15 GMT+0000 (Coordinated Universal Time)

1 63217U 25052H 26263.52750684 .00013997 00000+0 39110-3 0 9994 2 63217 97.3730 159.6241 0004291 119.4603 240.7070 15.36801986 84726
UTC large
Height (km)
Speed (km/s)
/
Latitude / Longitude
Inclination (degrees)
Orbital Period (minutes)
Azimuth
Elevation
Range (km)
Doppler Factor

Next 0 passes for location: London (51.5072 / 0.1276)

No passes found over London.
TEVEL2-1